Home   Weather   Pau   Past weeks

Flag for France Past Weather in Pau, Aquitaine, France — Yesterday and Last 2 Weeks

Now
45 °F

Sunny.


Feels Like: 42 °F
Forecast: 34 / 56 °F
Wind: 5 mph from Southeast

Location: Pau Airport

Current Time: Dec 3, 2016 at 10:46:02 am

Latest Report: Dec 3, 2016 at 10:00 am


Visibility: 10 mi

Pressure: 29.92 "Hg

Humidity: 57%

Dew Point: 30 °F

Location of PauLocation

Past Weather in Pau — Graph

°F

Pau Temperature Yesterday

Maximum temperature yesterday: 61 °F (at 1:30 pm)
Minimum temperature yesterday: 34 °F (at 6:00 am)
Average temperature yesterday: 45 °F

High & Low Weather Summary for the Past Weeks

 TemperatureHumidityPressure
High68 °F (Nov 20, 1:30 pm)100% (Nov 23, 2:30 am)30.42 "Hg (Nov 23, 2:30 am)
Low32 °F (Nov 26, 7:00 am)42% (Dec 2, 3:00 pm)29.36 "Hg (Nov 21, 4:30 am)
Average48 °F81%29.90 "Hg
* Reported Nov 18 9:00 am — Dec 3 9:30 am, Pau, Weather by CustomWeather, © 2016

Note: Actual official high and low records may vary slightly from our data, if they occured in-between our weather recording intervals... More about our weather records

Advertising

Pau Weather History for the Previous 24 Hours

Scroll right to see more
 ConditionsComfort  
Time TempWeatherWind HumidityBarometerVisibility
9:30 am
Sat, Dec 3
41 °FSunny.6 mph66%29.92 "Hg10 mi
9:00 am39 °FSunny.6 mph65%29.95 "Hg10 mi
8:30 am37 °FSunny.5 mph65%29.95 "Hg10 mi
8:00 am37 °FClear.6 mph70%29.95 "Hg10 mi
7:30 am37 °FClear.6 mph70%29.95 "Hg10 mi
7:00 am36 °FClear.3 mph75%29.95 "Hg10 mi
6:30 am37 °FClear.7 mph70%29.95 "Hg10 mi
6:00 am37 °FClear.6 mph75%29.95 "Hg10 mi
5:30 am36 °FClear.6 mph81%29.95 "Hg10 mi
5:00 am36 °FClear.5 mph81%29.95 "Hg10 mi
4:30 am36 °FClear.5 mph81%29.95 "Hg10 mi
4:00 am37 °FClear.5 mph75%29.98 "Hg10 mi
3:00 am37 °FClear.3 mph81%29.98 "Hg10 mi
2:00 am37 °FClear.5 mph81%29.98 "Hg10 mi
1:30 am37 °FClear.5 mph81%29.98 "Hg10 mi
1:00 am37 °FClear.5 mph81%29.98 "Hg10 mi
12:30 am37 °FClear.5 mph81%29.98 "Hg10 mi
12:00 am39 °FClear.5 mph81%29.98 "Hg6 mi
11:30 pm
Fri, Dec 2
39 °FClear.3 mph81%29.98 "Hg4 mi
11:00 pm39 °FClear.5 mph87%29.98 "Hg6 mi
10:30 pm39 °FClear.5 mph87%30.01 "Hg4 mi
10:00 pm39 °FClear.3 mph87%30.01 "Hg10 mi
9:30 pm39 °FClear.5 mph87%30.01 "Hg10 mi
9:00 pm41 °FClear.2 mph81%30.01 "Hg10 mi
8:30 pm41 °FClear.3 mph87%30.01 "Hg10 mi
8:00 pm43 °FClear.2 mph81%30.01 "Hg10 mi
7:30 pm45 °FClear.3 mph76%30.01 "Hg10 mi
7:00 pm46 °FClear.2 mph76%30.01 "Hg10 mi
6:30 pm48 °FClear.3 mph71%30.01 "Hg10 mi
6:00 pm50 °FClear.3 mph67%30.01 "Hg10 mi
5:30 pm54 °FClear.3 mph58%30.01 "Hg10 mi
5:00 pm57 °FSunny.2 mph51%30.01 "Hg10 mi
4:30 pm59 °FSunny.3 mph55%30.04 "Hg10 mi
4:00 pm61 °FSunny.5 mph48%30.04 "Hg10 mi
3:00 pm61 °FPassing clouds.3 mph42%30.04 "HgN/A
2:30 pm61 °FSunny.2 mph48%30.04 "Hg10 mi
2:00 pm61 °FSunny.2 mph48%30.07 "Hg10 mi
1:30 pm61 °FSunny.1 mph45%30.07 "Hg10 mi
1:00 pm59 °FSunny.1 mph48%30.07 "Hg10 mi
12:30 pm59 °FSunny.No wind45%30.09 "Hg10 mi
12:00 pm59 °FSunny.No wind48%30.09 "Hg10 mi
11:30 am55 °FSunny.No wind55%30.12 "Hg10 mi
11:00 am54 °FSunny.2 mph54%30.12 "Hg10 mi
10:30 am50 °FSunny.2 mph62%30.12 "Hg10 mi
10:00 am46 °FSunny.2 mph62%30.12 "Hg10 mi
Weather by CustomWeather, © 2016

See weather overviewHow to use our weather pages